Weather History for Kendall, FL

Change the Weather History Date:

Monday, December 24, 2012

  Actual Average Record
Temperature  
Mean Temperature 66 °F -  
Max Temperature 78 °F 77 °F 86 °F (2014)
Min Temperature 53 °F 56 °F 29 °F (1989)
Growing Degree Days 16 (Base 50)    
Moisture  
Dew Point 55 °F    
Average Humidity 71    
Maximum Humidity 93    
Minimum Humidity 45    
Precipitation  
Precipitation 0.00 in - - ()
Sea Level Pressure  
Sea Level Pressure 30.08 in    
Wind  
Wind Speed 3 mph (SE)    
Max Wind Speed 13 mph    
Max Gust Speed 20 mph    
Visibility 10 miles    
Events      
Averages and records for this station are not official NWS values.
T = Trace of Precipitation, MM = Missing Value Source: NWS Daily Summary

Daily Weather History Graph

Daily Weather History Graph

Search for Another Location

Airport:

Trip Planner

Search our weather history database for the weather conditions in past years. The results will help you decide how hot, cold, wet, or windy it might be!

Date:

Astronomy

Dec. 24, 2012 Rise Set
Actual Time 7:05 AM EST 5:37 PM EST
Civil Twilight 6:40 AM EST 6:03 PM EST
Nautical Twilight 6:11 AM EST 6:31 PM EST
Astronomical Twilight 5:43 AM EST 6:59 PM EST
Moon 2:57 PM EST (12/24) 3:50 AM EST (12/24)
Length of Visible Light 11h 22m
Length of Day
10h 32m
Waxing Gibbous, 88% of the Moon is Illuminated
Dec 24
Waxing Gibbous
Dec 28
Full
Jan 4
Last Quarter
Jan 11
New
Jan 18
First Quarter

Hourly Weather History & Observations

Time (EST) Temp. Dew Point Humidity Pressure Visibility Wind Dir Wind Speed Gust Speed Precip Events Conditions
12:53 AM 55.0 °F 53.1 °F 93% 30.14 in 10.0 mi Calm Calm - N/A   Mostly Cloudy
1:53 AM 53.1 °F 50.0 °F 89% 30.14 in 10.0 mi North 3.5 mph - N/A   Scattered Clouds
2:53 AM 57.9 °F 53.1 °F 84% 30.11 in 10.0 mi Calm Calm - N/A   Clear
3:53 AM 54.0 °F 52.0 °F 93% 30.10 in 10.0 mi Calm Calm - N/A   Partly Cloudy
4:53 AM 53.1 °F 50.0 °F 89% 30.08 in 10.0 mi Calm Calm - N/A   Clear
5:53 AM 57.0 °F 53.1 °F 87% 30.09 in 10.0 mi Calm Calm - N/A   Clear
6:53 AM 54.0 °F 52.0 °F 93% 30.11 in 10.0 mi Calm Calm - N/A   Clear
7:53 AM 57.9 °F 55.0 °F 90% 30.12 in 10.0 mi Calm Calm - N/A   Clear
8:53 AM 64.9 °F 55.0 °F 70% 30.13 in 10.0 mi NE 5.8 mph - N/A   Partly Cloudy
9:53 AM 72.0 °F 55.9 °F 57% 30.14 in 10.0 mi ENE 3.5 mph - N/A   Scattered Clouds
10:53 AM 77.0 °F 57.0 °F 50% 30.12 in 10.0 mi SSE 12.7 mph 19.6 mph N/A   Scattered Clouds
11:53 AM 78.1 °F 57.0 °F 48% 30.11 in 10.0 mi SSE 9.2 mph 18.4 mph N/A   Mostly Cloudy
12:53 PM 78.1 °F 55.0 °F 45% 30.07 in 10.0 mi SE 10.4 mph - N/A   Partly Cloudy
1:53 PM 78.1 °F 55.9 °F 46% 30.04 in 10.0 mi SE 11.5 mph - N/A   Scattered Clouds
2:53 PM 77.0 °F 55.9 °F 48% 30.04 in 10.0 mi SSE 8.1 mph - N/A   Clear
3:53 PM 75.9 °F 55.9 °F 50% 30.04 in 10.0 mi SSE 5.8 mph - N/A   Mostly Cloudy
4:53 PM 73.0 °F 55.9 °F 55% 30.04 in 10.0 mi SSE 8.1 mph - N/A   Clear
5:53 PM 70.0 °F 57.0 °F 63% 30.04 in 10.0 mi SE 4.6 mph - N/A   Clear
6:53 PM 69.1 °F 57.0 °F 65% 30.04 in 10.0 mi Calm Calm - N/A   Clear
7:53 PM 68.0 °F 59.0 °F 73% 30.03 in 10.0 mi South 4.6 mph - N/A   Clear
8:53 PM 68.0 °F 57.9 °F 70% 30.03 in 10.0 mi South 3.5 mph - N/A   Clear
9:53 PM 64.0 °F 57.0 °F 78% 30.04 in 10.0 mi NE 3.5 mph - N/A   Clear
10:53 PM 63.0 °F 57.9 °F 84% 30.05 in 10.0 mi Calm Calm - N/A   Clear
11:53 PM 61.0 °F 57.0 °F 87% 30.03 in 10.0 mi Calm Calm - N/A   Clear